This is the latest recevied weather packets stored in our database for station/object KF7PIZ. If no packets are shown the sender has not sent any weather packets the latest 1 day(s).
| Time | Temp. | Humidity | Pressure | Rain* | Wind** | Luminosity | Snow |
|---|---|---|---|---|---|---|---|
| 1778064696 | 10° C | 80% | 1018.5 hPa | 0 mm | - | 0 W/m² | - |
| 1778063789 | 10.56° C | 75% | 1018.3 hPa | 0 mm | - | 0 W/m² | - |
| 1778063486 | 10.56° C | 74% | 1018.2 hPa | 0 mm | - | 0 W/m² | - |
| 1778063184 | 10.56° C | 73% | 1018.3 hPa | 0 mm | - | 0 W/m² | - |
| 1778062881 | 11.11° C | 72% | 1018.2 hPa | 0 mm | - | 0 W/m² | - |
| 1778062577 | 11.67° C | 70% | 1018.2 hPa | 0 mm | - | 0 W/m² | - |
| 1778062274 | 11.67° C | 70% | 1017.9 hPa | 0 mm | - | 0 W/m² | - |
| 1778061973 | 11.67° C | 70% | 1017.8 hPa | 0 mm | - | 0 W/m² | - |
| 1778060763 | 12.22° C | 68% | 1017.8 hPa | 0 mm | - | 0 W/m² | - |
| 1778059250 | 12.78° C | 66% | 1017.5 hPa | 0 mm | - | 0 W/m² | - |
| 1778058343 | 12.78° C | 66% | 1017.4 hPa | 0 mm | - | 0 W/m² | - |
| 1778058039 | 12.78° C | 65% | 1017.7 hPa | 0 mm | - | 0 W/m² | - |
| 1778057736 | 13.33° C | 65% | 1017.4 hPa | 0 mm | - | 0 W/m² | - |
| 1778057130 | 12.78° C | 66% | 1017.3 hPa | 0 mm | - | 0 W/m² | - |
| 1778056825 | 13.33° C | 66% | 1017.4 hPa | 0 mm | - | 0 W/m² | - |
| 1778056523 | 12.78° C | 65% | 1017.1 hPa | 0 mm | - | 0 W/m² | - |
| 1778055917 | 12.78° C | 67% | 1017.1 hPa | 0 mm | - | 0 W/m² | - |
| 1778053797 | 13.33° C | 67% | 1016.9 hPa | 0 mm | - | 0 W/m² | - |
| 1778053494 | 13.33° C | 65% | 1016.8 hPa | 0 mm | - | 0 W/m² | - |
| 1778052889 | 13.89° C | 64% | 1016.9 hPa | 0 mm | - | 0 W/m² | - |
| 1778052586 | 13.89° C | 65% | 1016.8 hPa | 0 mm | - | 0 W/m² | - |
| 1778052283 | 13.89° C | 64% | 1016.6 hPa | 0 mm | - | 0 W/m² | - |
| 1778051679 | 13.89° C | 65% | 1016.5 hPa | 0 mm | - | 0 W/m² | - |
| 1778051072 | 13.89° C | 65% | 1016.5 hPa | 0 mm | - | 0 W/m² | - |
| 1778050770 | 13.89° C | 65% | 1016.4 hPa | 0 mm | - | 0 W/m² | - |
* Rain latest hour (hover to see other rain measurements)
** Current wind speed in m/s (hover to see current wind gust speed)